Location: Possagno
(45.8500°N, 11.8667°E)
Time: 00:31:28
(UTC+00:00)

Resurs 1-4 Rocket - Pass Details

Date: 04 October 2020
Orbit: 800 x 813 km, 98.6° (Epoch: 27 October)

Event Time Altitude Azimuth Distance (km) Brightness Sun altitude
Rises 02:41:05 0° 358° (N) 3,333 5.6 -27.1°
Reaches altitude 10° 02:44:33 10° 334° (NNW) 2,400 4.5 -26.5°
Enters shadow 02:44:59 11° 330° (NNW) 2,321 4.4 -26.4°
